| time (UTC) | temp F | wind direction | speed MPH | gust MPH | rain 1hr in | rain 24hr in | rain mn in | humidity % | barometer mb |
| 20260902230005 | 64 | 72 | 1.0 | 2.0 | 0.00 | 0.00 | 0.00 | 80 | 1003.7 |
| 20260902223004 | 64 | 74 | 0.0 | 3.0 | 0.00 | 0.00 | 0.00 | 79 | 1004.1 |
| 20260902220004 | 64 | 39 | 1.0 | 3.0 | 0.00 | 0.00 | 0.00 | 76 | 1004.1 |
| 20260902213004 | 65 | 35 | 0.0 | 3.0 | 0.00 | 0.00 | 0.00 | 76 | 1004.1 |
| 20260902211503 | 65 | 19 | 0.0 | 2.0 | 0.00 | 0.00 | 0.00 | 78 | 1004.1 |
| 20260902203006 | 64 | 37 | 0.0 | 0.0 | 0.00 | 0.00 | 0.00 | 81 | 1004.4 |
| 20260902201504 | 63 | 316 | 0.0 | 0.0 | 0.00 | 0.00 | 0.00 | 85 | 1004.4 |
| 20260902200504 | 62 | 17 | 0.0 | 1.0 | 0.00 | 0.00 | 0.00 | 84 | 1004.4 |
| 20260902195005 | 62 | 9 | 0.0 | 0.0 | 0.00 | 0.00 | 0.00 | 88 | 1004.7 |
| 20260902175503 | 60 | 47 | 0.0 | 0.0 | 0.00 | 0.00 | 0.41 | 92 | 1004.4 |
| 20260902174005 | 60 | 13 | 0.0 | 0.0 | 0.00 | 0.00 | 0.41 | 91 | 1004.1 |
| 20260902173004 | 60 | 337 | 0.0 | 0.0 | 0.01 | 0.00 | 0.41 | 92 | 1004.1 |
| 20260902171503 | 61 | 20 | 0.0 | 0.0 | 0.01 | 0.00 | 0.41 | 92 | 1003.7 |
| 20260902170005 | 60 | 9 | 0.0 | 0.0 | 0.01 | 0.00 | 0.41 | 93 | 1003.7 |
| 20260902164504 | 60 | 350 | 0.0 | 0.0 | 0.01 | 0.00 | 0.41 | 93 | 1003.7 |
| 20260902163003 | 60 | 350 | 0.0 | 0.0 | 0.00 | 0.00 | 0.40 | 93 | 1003.4 |
| 20260902154504 | 59 | 16 | 0.0 | 0.0 | 0.01 | 0.00 | 0.40 | 93 | 1003.4 |
| 20260902153003 | 59 | 13 | 0.0 | 0.0 | 0.01 | 0.00 | 0.40 | 93 | 1003.4 |
| 20260902150004 | 59 | 16 | 0.0 | 0.0 | 0.01 | 0.00 | 0.40 | 93 | 1003.4 |
| 20260902144503 | 59 | 3 | 0.0 | 0.0 | 0.01 | 0.00 | 0.39 | 92 | 1003.4 |
| 20260902143003 | 59 | 5 | 0.0 | 0.0 | 0.02 | 0.00 | 0.39 | 92 | 1003.0 |
| 20260902141504 | 59 | 348 | 0.0 | 0.0 | 0.07 | 0.00 | 0.39 | 92 | 1002.7 |
| 20260902140004 | 58 | 351 | 0.0 | 0.0 | 0.09 | 0.00 | 0.39 | 92 | 1002.4 |
| 20260902134004 | 59 | 343 | 0.0 | 0.0 | 0.12 | 0.00 | 0.37 | 92 | 1002.7 |
| 20260902132504 | 58 | 348 | 0.0 | 0.0 | 0.16 | 0.00 | 0.33 | 92 | 1002.4 |
| 20260902131005 | 58 | 343 | 0.0 | 0.0 | 0.18 | 0.00 | 0.31 | 92 | 1002.4 |
| 20260902124004 | 58 | 358 | 0.0 | 0.0 | 0.18 | 0.00 | 0.23 | 92 | 1002.4 |
| 20260902122504 | 58 | 1 | 0.0 | 0.0 | 0.11 | 0.00 | 0.15 | 91 | 1002.4 |
| 20260902121005 | 58 | 352 | 0.0 | 0.0 | 0.07 | 0.00 | 0.11 | 91 | 1002.4 |
| 20260902115504 | 59 | 12 | 0.0 | 0.0 | 0.04 | 0.00 | 0.07 | 91 | 1002.4 |
| 20260902112504 | 59 | 1 | 0.0 | 0.0 | 0.03 | 0.00 | 0.04 | 91 | 1002.4 |
| 20260902111004 | 58 | 356 | 0.0 | 0.0 | 0.02 | 0.00 | 0.03 | 90 | 1002.4 |
| 20260902105504 | 58 | 355 | 0.0 | 0.0 | 0.02 | 0.00 | 0.03 | 90 | 1002.4 |
| 20260902104005 | 58 | 350 | 0.0 | 0.0 | 0.00 | 0.00 | 0.01 | 90 | 1002.4 |
| 20260902102503 | 58 | 357 | 0.0 | 0.0 | 0.01 | 0.00 | 0.01 | 89 | 1002.7 |
| 20260902101005 | 58 | 357 | 0.0 | 0.0 | 0.01 | 0.00 | 0.01 | 89 | 1002.7 |
| 20260902095504 | 58 | 357 | 0.0 | 0.0 | 0.01 | 0.00 | 0.01 | 88 | 1002.7 |
| 20260902093003 | 59 | 0 | 0.0 | 0.0 | 0.00 | 0.00 | 0.00 | 86 | 1002.7 |
| 20260902091504 | 59 | 6 | 0.0 | 0.0 | 0.00 | 0.00 | 0.00 | 87 | 1003.0 |
| 20260902090504 | 59 | 341 | 0.0 | 0.0 | 0.00 | 0.00 | 0.00 | 87 | 1003.0 |
| 20260902085004 | 59 | 344 | 0.0 | 0.0 | 0.00 | 0.00 | 0.00 | 86 | 1003.0 |
| 20260902083504 | 58 | 354 | 0.0 | 0.0 | 0.00 | 0.00 | 0.00 | 87 | 1003.0 |
| 20260902082004 | 58 | 5 | 0.0 | 0.0 | 0.00 | 0.00 | 0.00 | 87 | 1003.0 |
| 20260902080504 | 58 | 4 | 0.0 | 0.0 | 0.00 | 0.00 | 0.00 | 87 | 1003.0 |
| 20260902075004 | 58 | 346 | 0.0 | 0.0 | 0.00 | 0.00 | 0.00 | 86 | 1003.0 |
| 20260902073005 | 58 | 6 | 0.0 | 0.0 | 0.00 | 0.00 | 0.00 | 87 | 1003.0 |
| 20260902071503 | 58 | 358 | 0.0 | 0.0 | 0.00 | 0.00 | 0.00 | 87 | 1003.0 |
| 20260902070005 | 58 | 339 | 0.0 | 0.0 | 0.00 | 0.00 | 0.00 | 86 | 1003.0 |
| 20260902064503 | 58 | 356 | 0.0 | 0.0 | 0.00 | 0.00 | 0.00 | 86 | 1003.0 |
| 20260902063004 | 58 | 358 | 0.0 | 0.0 | 0.00 | 0.00 | 0.00 | 86 | 1003.0 |
| 20260902060005 | 58 | 347 | 0.0 | 0.0 | 0.00 | 0.00 | 0.00 | 86 | 1003.0 |
| 20260902054504 | 58 | 341 | 0.0 | 0.0 | 0.00 | 0.00 | 0.00 | 86 | 1003.4 |
| 20260902051504 | 59 | 2 | 0.0 | 0.0 | 0.00 | 0.00 | 0.00 | 85 | 1003.0 |
| 20260902050007 | 59 | 312 | 0.0 | 0.0 | 0.00 | 0.00 | 0.00 | 85 | 1003.0 |
| 20260902044504 | 59 | 19 | 0.0 | 0.0 | 0.00 | 0.00 | 0.00 | 85 | 1003.0 |
| 20260902043004 | 60 | 341 | 0.0 | 0.0 | 0.00 | 0.00 | 0.00 | 84 | 1003.0 |
| 20260902041505 | 60 | 358 | 0.0 | 0.0 | 0.00 | 0.00 | 0.00 | 84 | 1002.7 |
| 20260902040503 | 60 | 357 | 0.0 | 0.0 | 0.00 | 0.00 | 0.00 | 84 | 1002.7 |
| 20260902035004 | 60 | 341 | 0.0 | 0.0 | 0.00 | 0.00 | 0.00 | 83 | 1002.7 |
| 20260902033503 | 60 | 0 | 0.0 | 0.0 | 0.00 | 0.00 | 0.00 | 83 | 1002.7 |
| 20260902032004 | 61 | 339 | 0.0 | 0.0 | 0.00 | 0.00 | 0.00 | 82 | 1002.7 |
| 20260902030505 | 61 | 350 | 0.0 | 0.0 | 0.00 | 0.00 | 0.00 | 82 | 1002.7 |
| 20260902025503 | 61 | 338 | 0.0 | 0.0 | 0.00 | 0.00 | 0.00 | 82 | 1002.4 |
| 20260902024005 | 61 | 354 | 0.0 | 0.0 | 0.00 | 0.00 | 0.00 | 82 | 1002.4 |
| 20260902022504 | 61 | 18 | 0.0 | 0.0 | 0.00 | 0.00 | 0.00 | 81 | 1002.7 |
| 20260902021503 | 62 | 35 | 0.0 | 0.0 | 0.00 | 0.00 | 0.00 | 80 | 1002.4 |
| 20260902020004 | 62 | 353 | 0.0 | 0.0 | 0.00 | 0.00 | 0.00 | 80 | 1002.4 |
| 20260902014505 | 62 | 10 | 0.0 | 0.0 | 0.00 | 0.00 | 0.00 | 79 | 1002.4 |
| 20260902013004 | 62 | 61 | 0.0 | 2.0 | 0.00 | 0.00 | 0.00 | 79 | 1002.4 |
| 20260902011504 | 63 | 71 | 1.0 | 3.0 | 0.00 | 0.00 | 0.00 | 79 | 1002.4 |
| 20260902010005 | 63 | 24 | 1.0 | 1.0 | 0.00 | 0.00 | 0.00 | 78 | 1002.4 |
| 20260902004504 | 64 | 2 | 0.0 | 3.0 | 0.00 | 0.00 | 0.00 | 76 | 1002.4 |
| 20260902003504 | 64 | 33 | 3.0 | 5.0 | 0.00 | 0.00 | 0.00 | 75 | 1002.4 |
| 20260902000523 | 64 | 35 | 1.0 | 5.0 | 0.00 | 0.00 | 0.00 | 73 | 1002.4 |
| 20260901235505 | 64 | 7 | 1.0 | 3.0 | 0.00 | 0.00 | 0.00 | 73 | 1002.4 |
| 20260901234503 | 65 | 1 | 0.0 | 4.0 | 0.00 | 0.00 | 0.00 | 72 | 1002.4 |
| 20260901233003 | 64 | 16 | 4.0 | 4.0 | 0.00 | 0.00 | 0.00 | 71 | 1002.4 |
| 20260901231514 | 65 | 34 | 4.0 | 4.0 | 0.00 | 0.00 | 0.00 | 70 | 1002.4 |